Location: Unspecified
(42.3650°N, 71.1030°W)
Time: 22:53:56
(UTC+00:00)

Transit 2A - All Passes

Search period start: 15 June 2024 00:00
Search period end: 25 June 2024 00:00
Orbit: 593 x 959 km, 66.7° (Epoch: 15 June)

Date Brightness Start Highest point End Pass type
(mag) Time Alt. Az. Time Alt. Az. Time Alt. Az.
15 Jun - 04:38:32 10° N 04:42:47 19° NE 04:47:09 10° E visible
15 Jun - 06:20:41 10° NNW 06:26:52 81° ENE 06:33:14 10° SSE visible
15 Jun - 08:05:19 10° WNW 08:09:24 18° WSW 08:13:31 10° SW visible
15 Jun - 21:00:50 10° SSW 21:05:29 55° ESE 21:10:40 10° NE daylight
15 Jun - 22:45:01 10° W 22:49:02 24° NW 22:53:25 10° N daylight
16 Jun - 04:03:48 10° N 04:07:09 15° NE 04:10:35 10° ENE visible
16 Jun - 05:45:30 10° NNW 05:51:34 59° NE 05:57:49 10° SE visible
16 Jun - 07:29:21 10° NW 07:34:25 27° WSW 07:39:32 10° SSW visible
16 Jun - 20:26:04 10° S 20:30:24 36° ESE 20:35:12 10° NE daylight
16 Jun - 22:09:07 10° WSW 22:13:33 32° NW 22:18:26 10° NNE daylight
17 Jun - 03:29:22 10° N 03:31:27 12° NNE 03:33:34 10° NE visible
17 Jun - 05:10:24 10° NNW 05:16:13 43° NE 05:22:13 10° ESE visible
17 Jun - 06:53:42 10° NW 06:59:22 38° WSW 07:05:08 10° S visible
17 Jun - 19:51:37 10° SSE 19:55:24 24° ESE 19:59:31 10° NE daylight
17 Jun - 21:33:27 10° SW 21:38:08 46° NW 21:43:23 10° NNE daylight
17 Jun - 23:21:29 10° NW 23:22:52 11° NNW 23:24:16 10° NNW daylight
18 Jun - 04:35:21 10° NNW 04:40:48 32° NE 04:46:24 10° ESE visible
18 Jun - 06:18:14 10° NW 06:24:15 54° WSW 06:30:24 10° S visible
18 Jun - 19:17:41 10° SE 19:20:29 15° ESE 19:23:24 10° ENE daylight
18 Jun - 20:57:59 10° SW 21:02:48 67° WNW 21:08:14 10° NNE daylight
18 Jun - 22:44:24 10° WNW 22:47:09 14° NW 22:50:02 10° N daylight
19 Jun - 04:00:23 10° N 04:05:19 25° NE 04:10:22 10° E visible
19 Jun - 05:42:52 10° NNW 05:49:05 76° WSW 05:55:25 10° SSE visible
19 Jun - 07:28:54 10° WNW 07:31:19 12° W 07:33:46 10° SW visible
19 Jun - 20:22:44 10° SSW 20:27:34 83° ESE 20:32:59 10° NNE daylight
19 Jun - 22:07:57 10° W 22:11:31 18° NW 22:15:19 10° N daylight
20 Jun - 03:25:29 10° N 03:29:44 19° NE 03:34:05 10° E visible
20 Jun - 05:07:37 10° NNW 05:13:51 79° ENE 05:20:13 10° SE visible
20 Jun - 06:52:13 10° WNW 06:56:23 19° WSW 07:00:36 10° SSW visible
20 Jun - 19:47:43 10° S 19:52:24 54° ESE 19:57:38 10° NE daylight
20 Jun - 21:31:49 10° W 21:35:57 25° NW 21:40:26 10° N daylight
21 Jun - 02:50:44 10° N 02:54:05 15° NE 02:57:31 10° ENE visible
21 Jun - 04:32:27 10° NNW 04:38:33 58° NE 04:44:47 10° SE visible
21 Jun - 06:16:16 10° NW 06:21:24 27° WSW 06:26:34 10° SSW visible
21 Jun - 19:12:57 10° S 19:17:19 35° ESE 19:22:09 10° NE daylight
21 Jun - 20:55:56 10° WSW 21:00:27 33° NW 21:05:26 10° NNE daylight
22 Jun - 02:16:17 10° N 02:18:21 12° NNE 02:20:28 10° NE visible
22 Jun - 03:57:20 10° NNW 04:03:10 42° NE 04:09:10 10° ESE visible
22 Jun - 05:40:37 10° NW 05:46:20 39° WSW 05:52:07 10° S visible
22 Jun - 18:38:30 10° SSE 18:42:19 23° ESE 18:46:27 10° NE daylight
22 Jun - 20:20:16 10° SW 20:25:02 47° NW 20:30:21 10° NNE daylight
22 Jun - 22:08:04 10° NW 22:09:44 11° NNW 22:11:27 10° N daylight
23 Jun - 03:22:17 10° NNW 03:27:44 32° NE 03:33:20 10° ESE visible
23 Jun - 05:05:09 10° NW 05:11:13 55° WSW 05:17:22 10° S visible
23 Jun - 18:04:36 10° SE 18:07:23 15° ESE 18:10:18 10° ENE daylight
23 Jun - 19:44:48 10° SW 19:49:41 69° WNW 19:55:11 10° NNE daylight
23 Jun - 21:31:07 10° WNW 21:34:01 15° NW 21:37:05 10° N daylight
24 Jun - 02:47:17 10° N 02:52:13 24° NE 02:57:16 10° E visible
24 Jun - 04:29:47 10° NNW 04:36:02 77° WSW 04:42:22 10° SSE visible
24 Jun - 06:15:41 10° WNW 06:18:17 13° W 06:20:53 10° SW visible
24 Jun - 19:09:34 10° SSW 19:14:26 81° ESE 19:19:56 10° NNE daylight
24 Jun - 20:54:42 10° W 20:58:22 19° NW 21:02:19 10° N daylight
